Flag for Moldova Weather past 2 weeks in Chisinau, Moldova

Now
64 °F

Overcast.


Feels Like: 64 °F
Forecast: 62 / 74 °F
Wind: 7 mph from South

Location: Chisinau International Airport

Current Time: Sep 22, 2014 at 1:36:15 AM

Latest Report: Sep 22, 2014 at 1:00 AM


Visibility: N/A

Pressure: 29.86 "Hg

Humidity: 68%

Dew point: 54 °F

Location of ChisinauLocation

Historic Weather in Chisinau — Graph

°F

Chisinau temperature yesterday

Maximum temperature yesterday: 72 °F (at 2:00 PM)
Minimum temperature yesterday: 57 °F (at 4:30 AM)
Average temperature yesterday: 64 °F

Past Weeks' High & Low Weather Summary

 TemperatureHumidityPressure
High84 °F (Sep 10, 3:00 PM)88% (Sep 13, 4:30 AM)30.30 "Hg (Sep 13, 4:30 AM)
Low36 °F (Sep 20, 6:30 AM)13% (Sep 19, 5:00 PM)29.86 "Hg (Sep 21, 11:00 PM)
Average65 °F48%30.06 "Hg
* Reported Midnight between Sep 6 and Sep 7 — Sep 22 12:30 AM, Chisinau, Weather by CustomWeather, © 2014

Note: Actual official high and low records may vary slightly from our data, if they occured in-between our weather recording intervals... More about our weather records

Advertising

Chisinau weather history for previous 24 hours

 ConditionsComfort  
Time TempWeatherWind HumidityBarometerVisibility
12:30 AM
Sep 22
64 °FMostly cloudy.8 mph68%29.86 "HgN/A
12:00 AM64 °FMostly cloudy.8 mph68%29.86 "HgN/A
11:30 PM
Sep 21
64 °FMostly cloudy.7 mph68%29.86 "HgN/A
11:00 PM64 °FMostly cloudy.7 mph68%29.86 "HgN/A
10:30 PM64 °FOvercast.10 mph68%29.89 "HgN/A
10:00 PM64 °FOvercast.9 mph64%29.89 "HgN/A
9:30 PM64 °FOvercast.10 mph64%29.89 "HgN/A
9:00 PM64 °FOvercast.8 mph64%29.89 "HgN/A
8:30 PM66 °FOvercast.9 mph60%29.89 "HgN/A
8:00 PM66 °FOvercast.8 mph60%29.89 "HgN/A
7:30 PM66 °FOvercast.10 mph60%29.89 "HgN/A
7:00 PM66 °FOvercast.12 mph52%29.89 "HgN/A
6:30 PM68 °FOvercast.10 mph53%29.89 "HgN/A
6:00 PM68 °FOvercast.10 mph49%29.89 "HgN/A
5:30 PM68 °FOvercast.13 mph49%29.89 "HgN/A
5:00 PM70 °FOvercast.13 mph46%29.89 "HgN/A
4:30 PM70 °FPartly sunny.14 mph46%29.89 "HgN/A
4:00 PM70 °FPartly sunny.13 mph46%29.92 "HgN/A
3:30 PM70 °FPartly sunny.14 mph46%29.92 "HgN/A
3:00 PM70 °FPartly sunny.14 mph46%29.92 "HgN/A
2:30 PM70 °FPartly sunny.15 mph50%29.92 "HgN/A
2:00 PM72 °FScattered clouds.17 mph47%29.95 "HgN/A
1:30 PM70 °FScattered clouds.16 mph53%29.95 "HgN/A
1:00 PM70 °FScattered clouds.16 mph50%29.95 "HgN/A
12:30 PM68 °FBroken clouds.17 mph56%29.95 "HgN/A
12:00 PM66 °FPartly sunny.17 mph60%29.95 "HgN/A
11:30 AM64 °FScattered clouds.13 mph68%29.98 "HgN/A
11:00 AM64 °FScattered clouds.12 mph68%29.98 "HgN/A
10:30 AM63 °FScattered clouds.13 mph73%29.98 "HgN/A
10:00 AM63 °FPartly sunny.10 mph77%29.98 "HgN/A
9:30 AM61 °FPartly sunny.9 mph77%29.98 "HgN/A
9:00 AM61 °FLight rain. Partly sunny.9 mph72%29.95 "HgN/A
8:30 AM63 °FLight rain. Partly sunny.8 mph64%29.98 "HgN/A
8:00 AM61 °FScattered clouds.8 mph68%29.98 "HgN/A
7:30 AM61 °FPassing clouds.8 mph68%29.98 "HgN/A
7:00 AM59 °FPassing clouds.9 mph72%29.98 "HgN/A
6:30 AM59 °FPassing clouds.6 mph72%29.98 "HgN/A
6:00 AM59 °FClear.7 mph72%29.98 "Hg10 mi
5:30 AM59 °FClear.8 mph72%29.98 "Hg10 mi
5:00 AM59 °FPassing clouds.6 mph72%29.98 "HgN/A
4:30 AM57 °FPassing clouds.3 mph77%29.98 "HgN/A
4:00 AM59 °FPassing clouds.5 mph72%29.98 "HgN/A
3:30 AM59 °FClear.6 mph72%29.98 "Hg10 mi
3:00 AM59 °FClear.6 mph72%30.01 "Hg10 mi
2:30 AM59 °FClear.7 mph68%30.01 "Hg10 mi
2:00 AM59 °FClear.5 mph68%30.01 "Hg10 mi
1:30 AM59 °FClear.7 mph68%30.01 "Hg10 mi
1:00 AM61 °FClear.8 mph63%30.01 "Hg10 mi
Weather by CustomWeather, © 2014

See weather overviewHow to use our weather pages